Blackpool, United Kingdom

8:09 AM BST on September 20, 2017 (GMT +0100)
Blackpool

Weather History for EGNH - August, 2013

Change the Weather History Date:

Monday, August 26, 2013

  Actual Average Record
Temperature  
Mean Temperature 62 °F -  
Max Temperature 70 °F 61 °F 71 °F (1997)
Min Temperature 54 °F 52 °F 50 °F (2011)
Degree Days  
Heating Degree Days 3    
Growing Degree Days 12 (Base 50)    
Moisture  
Dew Point 58 °F    
Average Humidity 78    
Maximum Humidity 96    
Minimum Humidity 64    
Precipitation  
Precipitation 0.00 in - - ()
Sea Level Pressure  
Sea Level Pressure 30.13 in    
Wind  
Wind Speed 7 mph ()    
Max Wind Speed 12 mph    
Max Gust Speed -    
Visibility 5.5 miles    
Events      
Averages and records for this station are not official NWS values.
T = Trace of Precipitation, MM = Missing Value Source: Averaged Metar Reports

Daily Weather History Graph

Daily Weather History Graph

Search for Another Location

Airport or City:

Trip Planner

Search our weather history database for the weather conditions in past years. The results will help you decide how hot, cold, wet, or windy it might be!

Date:

Astronomy

Aug. 26, 2013 Rise Set
Actual Time 6:10 AM BST 8:16 PM BST
Civil Twilight 5:32 AM BST 8:54 PM BST
Nautical Twilight 4:44 AM BST 9:41 PM BST
Astronomical Twilight 3:48 AM BST 10:36 PM BST
Moon 10:15 PM BST (8/26) 12:57 PM BST (8/26)
Length of Visible Light 15h 21m
Length of Day
14h 05m
Waning Gibbous, 69% of the Moon is Illuminated
Aug 26
Waning Gibbous
Aug 28
Last Quarter
Sep 5
New
Sep 12
First Quarter
Sep 19
Full

Hourly Weather History & Observations

Time (BST) Temp. Dew Point Humidity Pressure Visibility Wind Dir Wind Speed Gust Speed Precip Events Conditions
1:00 AM 58 °F 57 °F 94%  in - East 8.1 mph - -  
3:50 AM 56 °F 55 °F 95%  in - ENE 5.8 mph - -  
6:20 AM 57.2 °F 55.4 °F 94% 30.15 in 3.1 mi ENE 6.9 mph - N/A   Mist
6:50 AM 55 °F 54 °F 96%  in - East 6.9 mph - -  
6:50 AM 57.2 °F 55.4 °F 94% 30.15 in 4.3 mi ENE 6.9 mph - N/A   Unknown
7:20 AM 57.2 °F 55.4 °F 94% 30.15 in 4.3 mi ENE 5.8 mph - N/A   Unknown
7:50 AM 59.0 °F 55.4 °F 88% 30.15 in 4.3 mi ENE 5.8 mph - N/A   Unknown
8:20 AM 60.8 °F 57.2 °F 88% 30.15 in 4.3 mi ENE 8.1 mph - N/A   Unknown
8:50 AM 62.6 °F 57.2 °F 82% 30.15 in 4.3 mi ENE 6.9 mph - N/A   Unknown
9:20 AM 64.4 °F 59.0 °F 83% 30.15 in 4.3 mi ENE 6.9 mph - N/A   Unknown
9:50 AM 65 °F 58 °F 73%  in - East 5.8 mph - -  
9:50 AM 66.2 °F 59.0 °F 78% 30.18 in 5.6 mi ENE 5.8 mph - N/A   Unknown
10:20 AM 68.0 °F 59.0 °F 73% 30.18 in - East 4.6 mph - N/A   Clear
10:50 AM 69.8 °F 59.0 °F 68% 30.15 in - Variable 2.3 mph - N/A   Clear
11:20 AM 68.0 °F 59.0 °F 73% 30.15 in 6.2 mi Variable 5.8 mph - N/A   Partly Cloudy
11:50 AM 68.0 °F 59.0 °F 73% 30.15 in 6.2 mi WNW 5.8 mph - N/A   Partly Cloudy
12:20 PM 68.0 °F 59.0 °F 73% 30.15 in 6.2 mi WNW 9.2 mph - N/A   Partly Cloudy
12:50 PM 68 °F 58 °F 64%  in - NW 11.5 mph - -  
12:50 PM 68.0 °F 57.2 °F 68% 30.15 in 6.2 mi NW 11.5 mph - N/A   Partly Cloudy
1:20 PM 68.0 °F 59.0 °F 73% 30.15 in 6.2 mi NW 10.4 mph - N/A   Partly Cloudy
1:50 PM 68.0 °F 59.0 °F 73% 30.15 in 6.2 mi NW 9.2 mph - N/A   Partly Cloudy
2:20 PM 69.8 °F 60.8 °F 73% 30.15 in 6.2 mi NW 9.2 mph - N/A   Partly Cloudy
2:50 PM 69.8 °F 59.0 °F 68% 30.12 in 6.2 mi NW 8.1 mph - N/A   Partly Cloudy
3:20 PM 69.8 °F 59.0 °F 68% 30.12 in 6.2 mi NW 9.2 mph - N/A   Partly Cloudy
3:50 PM 67 °F 59 °F 70%  in - NNW 11.5 mph - -  
3:50 PM 68.0 °F 60.8 °F 78% 30.12 in 6.2 mi NW 11.5 mph - N/A   Partly Cloudy
4:20 PM 68.0 °F 60.8 °F 78% 30.12 in 6.2 mi NW 11.5 mph - N/A   Partly Cloudy
4:50 PM 68.0 °F 60.8 °F 78% 30.12 in 6.2 mi NW 11.5 mph - N/A   Partly Cloudy
5:50 PM 66.2 °F 59.0 °F 78% 30.09 in 6.2 mi NNW 10.4 mph - N/A   Partly Cloudy
6:20 PM 66.2 °F 57.2 °F 73% 30.09 in 6.2 mi NNW 9.2 mph - N/A   Partly Cloudy
6:50 PM 65 °F 58 °F 71%  in - NNW 8.1 mph - -  
6:50 PM 66.2 °F 59.0 °F 78% 30.09 in - NNW 9.2 mph - N/A   Clear
7:20 PM 66.2 °F 55.4 °F 68% 30.09 in - North 5.8 mph - N/A   Clear
7:50 PM 66.2 °F 57.2 °F 73% 30.09 in - NW 5.8 mph - N/A   Clear
8:20 PM 64.4 °F 57.2 °F 77% 30.09 in - NNW 5.8 mph - N/A   Clear
8:50 PM 64.4 °F 59.0 °F 83% 30.12 in - NNW 6.9 mph - N/A   Clear
9:20 PM 64.4 °F 59.0 °F 83% 30.12 in - NNW 6.9 mph - N/A   Clear
9:50 PM 63 °F 59 °F 84%  in - North 4.6 mph - -  
9:50 PM 64.4 °F 59.0 °F 83% 30.12 in - North 4.6 mph - N/A   Clear
10:20 PM 64.4 °F 57.2 °F 77% 30.12 in 6.2 mi North 3.5 mph - N/A   Partly Cloudy